Temperature
22 22 22 22 22 22 21 21 21 21 20 20 20 20 20 20 19 19 19 19 19 18 18 18 18 18 18 18 18 18 18 18 18 18 17 17 17 17 17 17 17 17 17
22 22 22 22 22 22 21 21 21 21 20 21 20 20 20 19 19 19 19 19 19 18 18 18 18 18 18 18 18 18 18 17 17 17 17 17 17 17 17 17 17 17 17
22 22 22 22 22 22 22 22 21 21 21 20 20 20 20 19 19 19 19 19 18 18 18 18 18 18 18 18 18 17 18 17 17 17 17 17 17 17 17 17 17 17 17
22 22 22 22 22 22 22 22 21 21 21 20 20 20 20 20 19 19 19 19 18 18 18 18 18 18 18 17 17 17 17 17 17 17 17 17 17 17 17 17 17 17 17
22 23 23 23 22 22 22 22 21 21 21 21 20 20 20 19 19 19 19 19 18 18 18 18 17 18 17 17 17 17 17 17 17 17 17 17 17 17 16 16 17 17 17
23 23 23 23 22 22 22 21 21 21 21 21 20 20 20 19 19 19 19 18 18 18 18 17 17 17 17 17 17 17 17 17 17 17 17 16 16 16 16 16 16 16 16
22 22 23 22 22 22 22 21 21 21 21 20 20 20 19 19 19 19 18 18 18 18 18 17 17 17 17 17 17 17 17 17 16 16 16 16 16 16 16 16 16 16 16
22 22 23 22 22 22 22 21 21 21 21 21 20 20 19 19 19 19 19 18 18 18 18 17 17 17 17 17 16 16 16 16 16 16 16 16 16 16 16 16 15 15 15
22 22 22 22 22 22 22 22 21 21 21 20 20 20 19 19 19 19 18 18 18 18 17 17 17 17 17 16 16 16 16 16 16 16 16 16 16 15 15 15 15 15 15
22 22 22 22 22 22 22 21 21 21 21 20 20 19 19 19 19 18 18 18 18 17 17 17 17 16 16 16 16 16 16 16 16 15 15 15 15 15 15 15 15 15 14
22 22 22 22 22 22 21 21 21 21 20 20 20 19 19 19 18 18 18 18 17 17 17 17 16 16 16 16 16 16 15 15 15 15 15 15 15 15 15 14 14 14 14
22 22 22 22 22 21 21 21 21 20 20 20 19 19 19 18 18 18 18 17 17 17 17 16 16 16 16 16 16 15 15 15 15 15 15 15 14 14 14 14 14 14 14
21 21 22 21 21 21 21 21 20 20 20 19 19 19 18 18 18 18 17 17 17 16 16 16 16 16 16 16 15 15 15 15 15 15 14 14 14 14 14 14 14 14 13
21 21 21 21 21 21 21 21 20 20 20 19 19 19 18 18 18 17 17 17 17 16 16 16 16 16 15 15 15 15 15 15 15 14 14 14 14 14 14 13 13 13 13
20 20 21 21 21 20 20 20 20 20 19 19 19 18 18 17 17 17 17 16 16 16 16 16 16 15 15 15 15 15 15 14 14 14 14 14 14 13 13 13 13 13 13
20 20 20 20 20 20 20 20 20 19 19 19 18 18 18 17 17 17 16 16 16 16 16 15 15 15 15 15 15 14 14 14 14 14 14 13 13 13 13 13 13 12 12
20 20 20 20 20 20 20 20 19 19 19 19 18 18 17 17 17 16 16 16 16 16 15 15 15 15 15 15 14 14 14 14 13 13 13 13 13 13 13 13 12 12 12
19 20 20 20 20 19 19 19 19 19 18 18 18 18 17 17 16 16 16 16 16 15 15 15 15 15 14 14 14 14 13 13 13 13 13 13 13 12 12 12 12 12 12
19 19 19 19 19 19 19 19 18 18 18 18 18 17 17 16 16 16 16 15 15 15 15 15 15 14 14 14 14 13 13 13 13 13 13 12 12 12 12 12 12 12 12
19 19 19 19 19 18 18 18 18 18 17 17 17 16 16 16 16 16 15 15 15 15 15 14 14 14 14 14 13 13 13 13 13 12 12 12 12 12 12 12 11 11 11
18 18 18 18 18 18 18 18 17 17 17 16 16 16 16 16 15 15 15 15 15 15 14 14 14 14 14 13 13 13 13 12 12 12 12 12 12 12 11 11 11 11 11
18 18 18 18 17 17 17 17 17 17 16 16 16 15 15 15 15 15 15 15 14 14 14 14 14 13 13 13 13 13 12 12 12 12 12 12 11 11 11 11 11 11 11
17 17 17 17 17 17 16 16 16 16 15 15 15 15 15 15 14 14 14 14 14 14 14 13 13 13 13 13 13 13 12 12 12 12 11 11 11 11 11 11 11 10 10
16 16 16 16 16 16 16 16 15 15 15 15 15 15 14 14 14 14 14 14 13 13 13 13 13 13 13 12 12 12 12 12 11 11 11 11 11 11 11 11 10 10 10
16 16 16 16 16 15 15 15 15 15 15 14 14 14 14 14 13 13 13 13 13 13 13 13 13 12 12 12 12 12 12 12 11 11 11 11 11 11 11 10 10 10 10
15 15 15 15 15 15 15 14 14 14 14 14 14 13 13 13 13 13 12 12 12 12 12 12 12 12 12 12 12 12 11 11 11 11 11 11 11 11 10 10 10 10 10
Wind_Speed
6 5 5 5 5 5 6 6 6 5 5 3 3 2 2 1 0 0 1 1 2 2 3 2 2 2 2 2 2 2 2 2 1 2 2 2 2 2 1 0 0 1 2
4 4 5 5 6 7 8 7 7 7 6 5 4 3 2 1 1 0 1 1 2 2 3 2 2 2 2 3 2 2 1 2 2 1 1 2 2 2 2 0 0 1 1
7 6 6 6 6 7 8 8 8 7 6 6 4 3 2 2 1 0 0 1 2 3 2 2 2 2 2 1 1 1 2 1 1 2 2 2 1 1 2 1 1 1 0
6 6 7 7 8 9 7 6 7 6 6 7 6 6 4 3 2 2 1 1 2 2 2 2 2 2 1 1 1 1 1 2 1 1 1 1 1 1 1 2 1 1 1
7 7 9 9 8 7 6 5 5 6 5 6 8 7 4 3 2 2 2 1 1 2 2 2 2 1 1 1 1 2 2 1 1 1 1 1 1 1 1 1 2 2 1
6 6 6 5 6 6 6 6 6 5 5 6 7 7 7 5 4 3 2 1 1 1 1 2 2 1 1 1 1 2 2 2 2 1 1 1 1 1 1 1 1 2 2
6 5 6 6 6 6 6 6 7 6 6 7 7 7 8 8 7 5 4 3 2 1 1 2 2 1 1 1 2 2 1 1 2 1 1 1 1 1 1 1 1 2 2
5 5 6 6 6 7 7 7 7 6 6 7 7 6 7 6 5 5 5 4 3 3 3 2 2 2 2 2 2 2 1 1 1 1 1 1 1 1 1 2 2 1 2
4 5 5 6 6 6 6 7 7 6 6 7 6 5 5 4 4 4 4 3 3 3 2 2 2 2 2 2 2 2 1 1 1 1 1 1 1 1 1 1 2 2 2
3 3 4 5 6 6 6 5 6 7 6 6 6 5 4 4 5 4 4 3 3 2 2 2 2 2 2 2 2 1 1 1 0 0 1 0 1 0 1 1 2 2 3
3 3 3 3 4 4 4 5 5 5 5 5 5 5 5 4 5 4 4 4 3 3 3 3 3 2 2 2 2 2 1 1 0 1 1 1 0 0 0 0 1 1 2
3 3 2 2 3 4 4 4 5 5 5 5 5 5 4 4 4 4 4 4 3 3 3 3 2 2 2 2 2 2 2 2 1 1 0 1 0 0 0 0 1 1 2
3 3 3 2 2 3 4 4 5 5 5 5 6 5 4 5 5 4 3 3 3 3 3 3 3 2 2 2 2 3 2 2 2 2 2 2 1 1 1 1 1 1 1
3 3 2 1 2 2 3 4 4 5 5 5 5 5 5 5 5 4 4 4 4 4 3 3 3 2 2 2 2 2 2 2 2 2 2 3 3 2 2 1 1 1 1
3 3 2 1 1 1 1 2 2 2 4 5 5 5 4 4 4 4 4 3 3 4 3 3 2 2 3 3 3 3 3 2 2 2 3 3 3 2 2 2 2 2 2
3 3 2 2 1 1 2 2 2 3 4 5 5 4 4 3 3 3 3 3 3 2 2 3 3 3 3 3 4 3 3 2 3 3 3 3 2 3 3 3 2 3 3
3 2 2 2 2 1 2 3 2 3 4 4 4 3 3 3 3 3 3 4 3 3 2 2 3 3 3 3 3 3 2 2 3 3 3 3 3 2 2 3 2 3 3
2 2 2 1 1 2 2 2 3 3 3 3 3 3 3 3 2 2 3 3 3 3 3 3 3 3 3 3 3 3 2 2 2 2 3 4 3 3 1 2 2 3 3
1 1 1 1 2 2 3 4 3 3 3 2 2 2 3 3 3 3 4 3 3 2 2 2 3 3 3 3 3 3 2 2 2 2 3 3 3 4 2 1 2 3 3
2 2 2 3 3 2 3 4 3 2 1 2 2 2 3 4 4 4 3 2 2 2 2 2 2 3 3 3 3 3 2 2 2 2 2 3 3 4 3 3 3 4 4
3 3 4 3 1 1 3 3 2 1 2 1 1 1 2 4 4 3 2 2 2 2 2 2 2 2 3 3 4 4 3 3 2 2 2 3 3 3 4 4 4 6 4
3 3 3 2 2 3 3 2 1 2 1 0 0 0 1 2 2 2 2 2 2 2 2 1 2 2 2 3 4 4 4 4 3 3 3 3 4 3 3 3 4 4 3
2 2 3 2 3 2 2 1 2 1 1 1 0 0 0 1 1 3 3 2 2 2 2 2 3 3 2 2 3 4 4 3 3 3 4 4 4 3 3 3 3 3 2
1 1 2 2 1 1 0 1 1 0 1 0 1 1 1 1 1 2 3 3 3 3 3 3 4 3 3 3 2 3 3 3 2 2 2 3 2 2 2 2 2 2 3
0 1 2 1 1 1 1 1 1 1 1 1 1 1 1 2 2 2 3 4 4 5 5 5 5 4 5 6 6 5 3 3 2 1 1 1 1 1 2 2 2 2 2
0 0 0 1 1 1 2 2 1 1 1 1 2 1 2 2 2 2 2 2 3 4 5 6 5 5 7 6 6 6 6 5 4 3 2 2 3 3 3 3 3 3 3
Wind_Direction
212 192 187 181 167 167 176 183 179 176 158 152 159 163 188 205 196 159 128 131 126 121 112 88 73 76 79 71 78 91 74 44 41 71 41 26 33 42 21 258 219 236 247
204 198 185 182 181 186 186 188 190 182 178 179 171 163 157 170 195 207 72 112 113 117 121 116 112 88 80 62 60 78 87 42 39 84 80 20 360 8 8 349 259 275 268
206 204 200 192 187 193 195 198 195 186 183 173 141 117 90 71 68 26 20 55 115 124 120 119 113 98 99 92 59 82 121 110 37 51 119 138 227 316 342 345 0 352 339
212 211 207 201 198 203 197 190 184 179 180 168 163 162 164 176 196 185 173 78 97 117 125 124 127 124 120 116 107 100 123 132 111 41 46 113 159 165 325 340 349 2 12
212 212 209 206 203 197 187 186 177 178 175 171 173 169 165 167 154 129 121 91 68 96 111 118 118 129 130 132 112 95 98 121 142 141 115 83 60 88 166 290 328 342 331
212 212 210 191 191 186 178 175 173 186 180 176 175 173 167 161 154 152 152 144 116 91 103 121 133 141 156 159 137 114 101 110 116 119 118 142 146 176 169 214 281 303 308
202 198 193 188 190 186 184 179 178 186 182 178 180 182 178 173 175 176 174 169 170 183 201 161 149 159 173 154 128 119 117 126 126 140 150 163 200 194 183 186 243 287 307
200 201 197 189 192 194 188 182 180 185 181 181 183 182 181 181 179 176 176 180 186 197 191 169 165 170 161 149 130 121 146 123 137 145 162 164 230 204 191 186 188 274 308
208 206 197 186 187 190 188 184 179 177 180 182 176 175 178 169 166 166 169 176 183 189 167 163 164 163 150 148 140 139 164 134 145 171 178 196 238 207 216 200 195 193 252
202 202 201 192 190 188 181 174 177 179 178 173 175 176 172 163 159 155 160 171 178 169 153 162 166 158 143 134 127 130 131 118 118 146 71 360 307 239 218 208 214 211 215
187 189 194 185 180 171 169 169 174 172 172 176 174 172 170 167 160 165 175 177 178 178 176 178 172 166 161 154 147 164 152 139 79 44 80 334 303 30 297 191 196 213 207
164 159 151 133 149 160 167 172 175 177 183 178 172 177 167 158 164 176 179 174 175 183 185 179 173 173 164 166 171 189 177 172 187 231 219 278 273 10 351 350 223 231 219
148 132 117 123 145 166 176 179 181 182 180 168 168 169 171 173 180 186 184 177 178 186 190 175 180 187 188 194 199 192 191 205 221 227 233 248 217 256 282 278 260 251 242
135 121 109 137 158 160 175 182 188 185 174 163 164 174 184 187 189 191 191 190 183 184 192 187 188 191 188 193 198 195 196 213 233 239 240 240 218 224 238 243 242 242 242
143 147 158 164 149 153 168 158 164 161 158 158 167 181 182 181 177 186 192 190 192 197 192 183 186 194 203 207 198 204 209 218 245 260 259 252 244 242 242 248 231 220 226
177 170 168 165 170 179 179 161 160 156 152 160 172 176 169 175 187 193 194 190 197 198 186 191 196 209 228 222 209 204 208 224 238 254 269 274 268 281 280 273 239 209 209
185 180 178 178 187 193 166 158 179 164 154 161 167 166 168 179 198 200 195 202 201 197 207 210 203 217 233 223 218 210 205 222 234 243 261 276 282 299 287 292 291 260 240
166 176 165 150 127 114 109 121 124 126 143 157 169 166 162 185 201 201 212 213 204 205 212 213 212 218 235 226 222 214 212 228 240 242 250 257 269 273 269 288 300 282 267
145 148 144 127 84 95 111 102 95 105 122 154 181 183 180 184 197 212 223 219 205 212 214 212 203 211 243 226 214 190 189 224 247 255 254 252 253 261 236 234 270 286 286
91 89 85 84 73 56 103 113 119 123 159 207 216 208 197 196 208 220 217 212 200 209 200 215 218 216 234 230 211 187 188 222 253 265 263 253 253 247 230 220 234 262 278
91 88 84 84 85 95 108 113 119 205 239 241 209 206 215 213 211 207 197 189 192 188 196 218 242 236 237 231 211 203 201 214 230 242 255 264 266 252 249 235 235 248 256
72 85 87 63 48 84 104 104 240 269 310 73 109 222 238 229 204 183 191 187 183 194 217 233 266 276 263 234 222 213 214 208 212 236 246 253 256 255 265 255 251 255 255
74 88 101 69 31 54 124 170 290 346 55 79 81 244 267 238 202 193 196 194 193 205 225 231 245 266 275 259 233 219 215 206 216 242 252 259 262 263 263 265 258 246 234
112 118 114 101 18 340 318 246 276 106 121 225 287 282 243 254 234 216 206 203 207 211 217 225 237 249 255 254 242 228 221 216 228 252 273 278 279 283 290 296 272 247 233
140 137 139 143 248 289 292 292 286 128 153 239 267 283 270 247 246 241 229 224 225 216 212 222 217 221 240 246 234 220 224 224 226 218 286 316 307 306 307 298 289 271 256
151 121 189 239 270 276 282 287 282 172 182 263 282 279 273 269 262 260 291 291 248 240 226 221 217 232 234 240 230 227 225 219 200 178 227 246 249 252 258 262 269 266 260
Height
1509 1511 1513 1515 1517 1518 1520 1521 1522 1524 1525 1527 1528 1528 1529 1529 1530 1530 1531 1531 1531 1531 1531 1531 1531 1531 1531 1531 1530 1530 1530 1529 1530 1530 1530 1531 1531 1531 1531 1532 1533 1534 1534
1508 1510 1511 1513 1515 1516 1518 1520 1521 1523 1524 1525 1527 1528 1528 1529 1530 1530 1530 1531 1531 1531 1531 1531 1531 1531 1531 1531 1531 1530 1530 1530 1530 1530 1530 1530 1532 1530 1531 1532 1532 1532 1533
1505 1507 1508 1510 1512 1514 1515 1517 1519 1521 1522 1524 1526 1527 1528 1528 1529 1529 1530 1530 1530 1530 1531 1531 1531 1531 1531 1530 1530 1530 1530 1530 1530 1530 1531 1530 1530 1530 1531 1531 1531 1532 1532
1503 1504 1506 1508 1509 1511 1513 1515 1517 1519 1521 1523 1524 1525 1525 1526 1528 1529 1529 1529 1530 1530 1530 1530 1530 1530 1530 1530 1530 1530 1530 1530 1529 1529 1529 1530 1530 1530 1529 1530 1530 1530 1531
1500 1501 1502 1504 1507 1509 1511 1513 1515 1517 1519 1521 1522 1523 1523 1525 1527 1528 1528 1528 1529 1529 1529 1529 1529 1530 1530 1529 1529 1529 1529 1529 1529 1529 1529 1528 1528 1528 1528 1528 1528 1529 1529
1498 1499 1500 1502 1505 1507 1509 1511 1514 1515 1517 1519 1520 1521 1522 1523 1524 1526 1526 1527 1528 1528 1528 1528 1528 1529 1529 1529 1529 1529 1529 1528 1528 1528 1528 1528 1527 1527 1527 1527 1526 1526 1526
1495 1496 1498 1500 1502 1505 1507 1509 1511 1513 1515 1517 1518 1519 1520 1522 1522 1523 1524 1525 1526 1526 1527 1527 1527 1527 1528 1528 1528 1528 1528 1528 1527 1527 1527 1526 1526 1526 1526 1525 1525 1524 1524
1493 1494 1496 1498 1500 1502 1505 1507 1509 1511 1513 1515 1516 1517 1518 1519 1520 1521 1522 1523 1524 1525 1525 1525 1525 1526 1526 1526 1526 1527 1526 1526 1526 1526 1525 1525 1525 1525 1524 1524 1523 1523 1522
1491 1492 1494 1496 1498 1500 1503 1505 1507 1509 1510 1512 1513 1515 1516 1517 1518 1519 1520 1521 1522 1523 1523 1523 1524 1524 1524 1525 1525 1525 1525 1525 1524 1524 1524 1523 1523 1522 1522 1522 1522 1522 1520
1490 1491 1493 1495 1497 1499 1501 1503 1505 1507 1508 1510 1511 1512 1513 1515 1516 1517 1518 1519 1520 1520 1521 1521 1522 1522 1522 1522 1523 1523 1523 1523 1522 1522 1522 1521 1521 1520 1520 1520 1519 1519 1519
1488 1490 1491 1494 1496 1498 1499 1501 1503 1505 1506 1508 1509 1510 1511 1513 1515 1515 1516 1517 1518 1518 1519 1519 1519 1520 1520 1521 1521 1521 1521 1521 1520 1520 1520 1519 1519 1518 1518 1517 1517 1517 1516
1487 1489 1491 1492 1494 1496 1498 1499 1501 1502 1504 1506 1507 1508 1510 1511 1512 1513 1514 1515 1516 1516 1517 1517 1518 1518 1518 1518 1519 1519 1519 1519 1518 1518 1518 1517 1516 1516 1515 1515 1515 1514 1514
1487 1488 1489 1491 1493 1495 1496 1498 1499 1500 1502 1503 1505 1506 1508 1509 1510 1511 1512 1513 1514 1514 1515 1515 1515 1516 1516 1516 1516 1516 1516 1516 1516 1516 1515 1515 1514 1513 1513 1512 1512 1511 1511
1486 1487 1489 1490 1492 1493 1494 1496 1497 1498 1499 1501 1503 1504 1506 1507 1508 1509 1510 1510 1511 1512 1512 1512 1513 1513 1514 1514 1514 1514 1514 1513 1513 1513 1512 1512 1511 1511 1510 1509 1509 1508 1508
1485 1487 1488 1489 1490 1491 1492 1494 1495 1497 1498 1499 1500 1502 1504 1505 1506 1507 1508 1508 1509 1509 1510 1510 1511 1511 1511 1511 1511 1512 1511 1511 1510 1510 1510 1509 1509 1508 1508 1507 1505 1505 1504
1484 1485 1487 1488 1489 1490 1491 1492 1493 1494 1495 1496 1497 1499 1501 1502 1503 1504 1505 1506 1506 1507 1507 1507 1508 1508 1508 1509 1509 1509 1509 1508 1508 1507 1507 1506 1506 1505 1504 1503 1502 1502 1501
1483 1485 1486 1487 1488 1490 1490 1491 1492 1493 1493 1494 1496 1497 1498 1499 1500 1501 1502 1503 1503 1504 1504 1505 1505 1505 1505 1506 1506 1506 1506 1506 1505 1505 1504 1503 1502 1502 1501 1499 1499 1498 1498
1483 1484 1485 1486 1487 1489 1490 1491 1491 1491 1491 1492 1493 1494 1495 1496 1497 1498 1499 1500 1500 1500 1501 1502 1502 1502 1503 1503 1503 1503 1503 1503 1502 1502 1501 1500 1499 1498 1497 1496 1495 1495 1494
1482 1483 1485 1486 1486 1488 1489 1490 1490 1490 1490 1491 1491 1492 1493 1494 1495 1496 1497 1497 1497 1498 1498 1498 1499 1499 1500 1500 1500 1500 1499 1499 1499 1498 1498 1497 1496 1495 1494 1493 1492 1491 1491
1482 1483 1484 1485 1486 1488 1488 1488 1489 1489 1489 1489 1490 1491 1492 1492 1493 1493 1494 1494 1494 1495 1495 1495 1496 1496 1496 1497 1497 1497 1496 1496 1496 1495 1495 1494 1493 1492 1491 1490 1489 1488 1487
1481 1482 1484 1485 1486 1487 1487 1487 1487 1487 1487 1488 1488 1489 1490 1490 1490 1491 1491 1492 1492 1492 1493 1492 1493 1493 1493 1493 1493 1493 1493 1493 1492 1492 1491 1491 1490 1489 1488 1487 1486 1485 1484
1481 1482 1483 1484 1484 1485 1486 1486 1486 1486 1486 1486 1486 1487 1488 1488 1488 1489 1489 1489 1490 1490 1490 1489 1489 1489 1489 1490 1490 1489 1490 1489 1489 1488 1488 1488 1488 1487 1485 1484 1483 1482 1481
1481 1482 1482 1482 1483 1484 1484 1484 1484 1484 1484 1484 1484 1484 1485 1485 1486 1486 1486 1486 1486 1486 1486 1486 1486 1486 1486 1486 1486 1486 1486 1486 1486 1485 1485 1485 1484 1484 1483 1482 1481 1480 1479
1481 1481 1481 1481 1482 1482 1482 1482 1482 1483 1483 1482 1482 1481 1481 1481 1482 1482 1483 1482 1482 1482 1482 1482 1482 1482 1482 1482 1482 1482 1483 1483 1483 1482 1482 1482 1481 1480 1480 1479 1478 1477 1476
1480 1480 1479 1479 1480 1480 1480 1480 1480 1480 1480 1480 1479 1479 1478 1478 1478 1479 1479 1479 1479 1480 1480 1479 1479 1478 1478 1479 1479 1479 1479 1479 1479 1479 1479 1478 1478 1477 1476 1476 1475 1474 1473
1478 1478 1478 1478 1478 1478 1478 1478 1478 1478 1477 1477 1476 1475 1475 1475 1475 1475 1476 1476 1477 1477 1476 1476 1476 1475 1475 1475 1475 1475 1476 1476 1476 1476 1475 1474 1474 1473 1472 1472 1471 1471 1470